Theta_e
309 308 307 306 305 304 304 304 306 306 305 304 304 302 301 302 297 294 293 292 291 291
308 307 306 305 304 303 304 303 304 304 303 303 301 301 301 299 298 297 297 297 296 295
307 307 305 304 301 302 303 303 301 301 299 297 297 296 298 297 297 296 296 296 295 294
306 305 303 301 301 301 301 299 297 297 295 294 294 295 295 295 295 294 294 294 293 293
304 303 301 300 300 300 298 298 296 294 294 295 295 295 295 294 293 292 292 292 292 291
302 300 299 299 298 297 297 297 297 297 296 295 294 293 293 292 292 292 291 291 290 290
299 297 297 298 297 298 298 297 297 296 295 295 293 292 291 290 290 290 290 290 290 289
300 297 296 295 295 297 297 296 296 294 293 292 291 289 288 288 288 288 288 288 288 288
297 296 296 297 295 294 293 292 292 291 291 290 289 285 284 285 286 286 286 286 287 287
294 294 293 293 292 292 291 291 290 290 290 289 289 284 283 283 285 286 286 287 286 286
293 292 292 291 291 291 290 290 289 289 288 288 287 284 283 282 285 286 286 286 286 285
292 291 290 290 289 289 289 288 288 287 287 286 286 284 282 282 284 284 284 283 284 284
291 290 289 289 288 288 288 287 287 285 286 284 284 283 282 282 283 281 282 283 284 284
291 290 289 288 288 287 287 286 285 284 283 283 283 283 282 281 281 281 280 281 282 284
Wind_Speed
10 8 10 12 12 12 12 11 12 7 5 5 4 2 0 3 4 4 3 4 3 2
9 10 10 13 12 11 12 9 7 6 6 5 6 4 3 3 3 2 4 3 4 3
10 11 11 11 13 12 10 6 5 6 8 10 10 10 9 7 5 4 4 3 5 6
11 11 10 10 10 8 6 7 7 9 8 7 5 5 6 6 8 8 8 8 9 10
11 11 9 9 8 7 5 5 4 4 5 7 8 8 9 8 7 8 9 10 11 12
11 9 8 7 6 5 5 7 7 8 7 9 8 8 7 8 9 10 11 12 12 12
9 8 7 5 6 8 7 8 9 9 10 10 9 9 9 10 11 12 12 12 12 12
8 7 6 8 8 10 10 10 9 10 8 8 8 6 9 12 13 13 13 13 12 13
5 5 5 6 7 9 9 10 9 10 10 11 8 7 10 12 13 14 14 13 12 13
7 8 7 7 9 10 11 10 10 10 10 11 11 7 12 15 13 13 13 14 13 13
8 8 8 9 10 11 9 10 10 10 10 11 9 7 12 16 14 13 14 14 15 14
9 9 9 9 10 10 10 10 10 10 11 12 12 11 15 15 13 13 15 14 13 13
8 9 10 10 10 8 9 10 8 10 12 12 12 13 14 15 10 12 10 12 13 14
8 8 9 9 8 9 9 9 7 8 10 11 9 11 14 16 11 10 10 11 11 10
Wind_Direction
343 343 337 338 326 314 309 309 315 301 297 302 290 260 53 44 102 102 86 85 85 63
323 325 318 316 315 312 309 310 302 292 294 333 3 334 332 303 229 216 212 195 183 211
313 316 317 316 315 317 310 304 304 348 350 21 15 357 334 336 328 294 281 266 248 247
315 316 316 315 323 331 2 18 26 21 19 1 331 309 301 305 301 296 293 281 270 274
318 321 324 336 332 337 2 31 32 7 309 280 274 267 271 288 293 286 293 293 292 289
326 316 324 333 321 330 289 270 270 263 294 320 321 310 303 301 302 300 300 299 297 294
319 327 316 294 286 281 299 309 321 322 320 306 305 307 314 317 311 305 301 299 292 289
337 307 349 4 306 319 305 318 319 302 308 304 299 321 333 321 311 304 299 293 291 288
353 294 288 308 318 334 325 322 318 313 309 305 304 53 334 320 308 302 297 296 294 291
331 329 340 334 331 330 323 318 315 310 311 310 310 29 328 319 304 301 294 296 296 293
330 325 326 326 329 323 319 314 313 315 316 313 313 352 324 320 298 301 297 296 295 300
314 314 318 322 322 320 318 316 318 321 321 314 317 336 324 317 311 305 306 299 291 284
310 307 315 322 319 317 313 314 327 326 317 323 309 332 325 322 311 304 299 300 293 284
305 311 318 313 314 314 318 317 332 309 313 306 317 313 314 322 313 310 309 301 299 293